User: anonymous   Login
Location: Newark
(44.9486°N, 4.8961°E)
Time: 06:51:27
(UTC+00:00)
Language:

ISS - Orbit

View from above orbital plane
View from above orbital plane
View from above satellite
View from above satellite

Ground track
Ground track

The orbit data is extracted from the following two-line orbital elements,

1 25544U 98067A   19235.17896763  .00016717  00000-0  10270-3 0  9026
2 25544  51.6433  28.9367 0007704 317.7620  42.2936 15.50392030 25644
Epoch (UTC): 23 August 2019 04:17:42
Eccentricity: 0.0007704
inclination: 51.6433°
perigee height: 410 km
apogee height: 421 km
right ascension of ascending node: 28.9367°
argument of perigee: 317.7620°
revolutions per day: 15.50392030
mean anomaly at epoch: 42.2936°
orbit number at epoch: 2564

The dashed part of the orbit path shows where the satellite is in the earth's shadow,  

DLR